Regional Weather Roundup
Issued by NWS

Home | Current Version | Previous Version | Graphics & Text | Print | Product List | Glossary On
Versions: 1 2 3 4 5 6 7 8 9 10 11 12 13 14 15 16 17 18 19 20 21 22 23 24 25 26 27 28 29 30 31 32 33 34 35 36 37 38 39 40 41 42 43 44 45 46 47 48 49 50
136
ASUS43 KLSX 041307
RWRMO

WEATHER SUMMARY FOR MISSOURI
NATIONAL WEATHER SERVICE SPRINGFIELD MO
700 AM CST SUN DEC 04 2016

NOTE: "FAIR" INDICATES FEW OR NO CLOUDS BELOW 12,000 FEET WITH NO
       SIGNIFICANT WEATHER AND/OR OBSTRUCTIONS TO VISIBILITY.
       CURRENT SKY AND/OR WEATHER CONDITIONS ARE NOT AVAILABLE FOR
       CHILLICOTHE AND FARMINGTON.

MOZ001>031-035>038-043-044-053-054-041400-
...NORTHERN AND WESTERN MISSOURI...

CITY           SKY/WX    TMP DP  RH WIND       PRES   REMARKS
KANSAS CTY INT MIX PCPN  37  34  89 S7        30.00F
KANSAS C DTWN  LGT RAIN  39  36  89 SW7       30.01F
LEE`S SUMMIT   LGT RAIN  38  36  92 S6        30.00F
ST JOSEPH      RAIN      37  35  92 W3        30.01F
CHILLICOTHE      N/A     35  34  96 SE3       30.04F
KIRKSVILLE     LGT SNOW  33  33 100 SE6       30.04S VSB 3/4 WCI  28

$$
MOZ066>068-077>081-088>096-101>105-041400-
...SOUTHWEST MISSOURI...

CITY           SKY/WX    TMP DP  RH WIND       PRES   REMARKS
SPRINGFIELD    LGT RAIN  38  37  97 S6        29.98F FOG
JOPLIN         LGT RAIN  40  40 100 CALM      30.02R
BRANSON        FOG       37  37 100 CALM      30.01R VSB 1

$$
MOZ032>034-039>042-045>050-055>058-069>072-041400-
...CENTRAL MISSOURI...

CITY           SKY/WX    TMP DP  RH WIND       PRES   REMARKS
COLUMBIA       LGT RAIN  37  36  96 SE6       30.01F FOG
JEFFERSON CITY MIX PCPN  37  36  96 E5        30.02F FOG
ROLLA          LGT RAIN  35  35 100 E6        29.98F FOG
SEDALIA        LGT RAIN  38  36  92 SE6       30.02F
WHITEMAN AFB   LGT RAIN  37  37 100 S6        30.01R
WARRENSBURG    LGT RAIN  36  36 100 S8        30.02R WCI  29
OSAGE BEACH    LGT RAIN  37  36  93 CALM      30.02S FOG

$$
MOZ051-052-059>065-041400-
...EAST CENTRAL MISSOURI...

CITY           SKY/WX    TMP DP  RH WIND       PRES   REMARKS
ST LOUIS INTL  LGT RAIN  38  33  82 E9        30.04F
SPIRIT OF STL  LGT RAIN  37  36  96 E7        30.03F
ST CHARLES     CLOUDY    38  35  89 E12       30.05F

$$
MOZ072>076-082>087-097>100-106>115-041400-
...SOUTH CENTRAL AND SOUTHEAST MISSOURI...

CITY           SKY/WX    TMP DP  RH WIND       PRES   REMARKS
CAPE GIRARDEAU CLOUDY    39  36  89 E7        30.02F
FARMINGTON     MIX PCPN  36  35  96 E5        30.00F FOG
POPLAR BLUFF   LGT RAIN  39  38  96 E5        30.01F FOG
WEST PLAINS    CLOUDY    37  36  96 E6        29.99S FOG

$$



USA.gov is the U.S. government's official web portal to all federal, state and local government web resources and services.